Miscellaneous Local Product
Issued by NWS Hastings, NE

Home | Current Version | Previous Version | Graphics & Text | Print | Product List | Glossary On
Versions: 1 2 3 4 5 6 7 8 9 10 11 12 13 14 15 16 17 18 19 20 21 22 23 24 25 26 27 28 29 30 31 32 33 34 35 36 37 38 39 40 41 42 43 44 45 46 47 48 49 50
000
AXUS43 KGID 221102
MISGRI

GID CWA HOURLY WEATHER ROUNDUP
NATIONAL WEATHER SERVICE HASTINGS NE
600 AM CDT SAT APR 22 2017

NOTE: "FAIR" INDICATES FEW OR NO CLOUDS BELOW 12,000 FEET WITH NO
SIGNIFICANT WEATHER AND/OR OBSTRUCTIONS TO VISIBILITY.

...SOUTH CENTRAL NEBRASKA...

CITY           SKY/WX    TMP DP  RH WIND       PRES   REMARKS
GRAND ISLAND   PTCLDY    39  37  92 N7        30.24S WCI  34
HASTINGS       PTCLDY    39  35  86 N7        30.24R WCI  34
KEARNEY        CLOUDY    39  34  81 N7        30.24S WCI  34
ORD            CLOUDY    37  33  85 CALM      30.25R
YORK           PTCLDY    39  37  93 N9        30.23S WCI  33
AURORA         CLOUDY    38  36  92 N8        30.23S WCI  32
LEXINGTON      CLEAR     32  30  93 W7        30.25S WCI  26
HOLDREGE       CLOUDY    37  33  84 N6        30.23S WCI  33
HEBRON         CLOUDY    44  37  75 N8        30.21R

...NEBRASKA PANHANDLE...

CITY           SKY/WX    TMP DP  RH WIND       PRES   REMARKS
CHADRON        CLEAR     39  32  76 CALM      30.24F
ALLIANCE       CLEAR     29  28  96 SE8       30.25R WCI  21
SCOTTSBLUFF    CLEAR     35  32  88 E6        30.25S WCI  30
SIDNEY         CLOUDY    38  36  92 E7        30.26S WCI  33

...WESTERN AND NORTH CENTRAL NEBRASKA...

CITY           SKY/WX    TMP DP  RH WIND       PRES   REMARKS
VALENTINE      CLEAR     29  26  89 W6        30.28R WCI  23
AINSWORTH      MOCLDY    36  34  92 CALM      30.27S
ONEILL         CLOUDY    43  38  82 NW3       30.26S
BROKEN BOW     MOCLDY    37  31  78 N5        30.25S WCI  33
IMPERIAL       CLOUDY    37  34  89 CALM      30.27R
NORTH PLATTE   PTCLDY    29  28  96 NW3       30.27S
MCCOOK         CLOUDY    37  34  89 NW6       30.25R WCI  32

...EASTERN NEBRASKA...

CITY           SKY/WX    TMP DP  RH WIND       PRES   REMARKS
NORFOLK        CLOUDY    37  35  92 W3        30.24S
SO SIOUX CITY  CLOUDY    35  34  96 NW7       30.25S WCI  29
TEKAMAH        CLOUDY    40  37  89 N8        30.24R WCI  34
COLUMBUS       PTCLDY    43  36  75 N7        30.24S
ALBION         PTCLDY    38  35  90 NW5       30.25S WCI  34
OMAHA EPPLEY   CLOUDY    40  36  86 N10       30.22R WCI  33
OFFUTT AFB     PTCLDY    44  37  74 N6        30.20R
MILLARD        CLOUDY    44  38  82 NW6       30.22R
LINCOLN        PTCLDY    43  37  79 N9        30.22S
NEBRASKA CITY  MOCLDY    43  35  73 N6        30.19S
BEATRICE       CLEAR     44  38  82 N9        30.19R
FALLS CITY     CLOUDY    47  39  74 N9        30.16R

...NORTHERN KANSAS...

CITY           SKY/WX    TMP DP  RH WIND       PRES   REMARKS
GOODLAND       CLOUDY    37  36  96 W3        30.24S
HILL CITY      CLOUDY    43  40  89 N12       30.23S
NORTON         SUNNY     39  34  81 NW7       30.23S WCI  34
PHILLIPSBURG   CLEAR     45  39  81 NW7       30.23R
SMITH CENTER   CLEAR     39  37  93 N9        30.21S WCI  33
HAYS           CLOUDY    44  40  85 N12       30.20S
RUSSELL        CLOUDY    44  41  89 NW12      30.17R
CONCORDIA      PTCLDY    46  39  76 NE12      30.17R
SALINA         CLOUDY    49  40  71 N13       30.15R
TOPEKA         CLOUDY    50  41  71 N9        30.10R



USA.gov is the U.S. government's official web portal to all federal, state and local government web resources and services.